Starlink 1557

operational
NORAD ID: 46034 Int'l Des: 2020-055 Owner: SPXS Country: US Constellation: starlink
LEOCIRCULARSTARLINK_TYPE

About Starlink 1557

Description loading...

Live Position

Loading 3D Globe...

Upcoming Passes

Altitude History

Altitude vs Time

uPlot chart will show altitude changes over time

Two-Line Element Set

1 46034U 20055H 25349.81113721 .00000557 00000-0 56287-4 0 9995
2 46034 53.0542 143.1609 0001308 86.6791 273.4348 15.06395786296223
Epoch: Dec 15, 2025 • Age: 31 hours

Current Status

Altitude 547.1 km
Velocity 7.59 km/s
Sub-Earth Point 11.06°N, 173.86°W
Launch Date Aug 7, 2020
Age 5.3 years
Type internet

Technical Details

Classification Payload
Mass 260.00 kg
Dry Mass 248.00 kg
Total Mass 260.00 kg
Length 0.20 m
Diameter 2.80 m
Span 9.00 m
Shape Box + pan
Manufacturer SPXS
Bus Type Starlink
Phase Status In Orbit
Owner/State SPXS/US

Large Constellations

Loading constellations...